Regional Weather Roundup
Issued by NWS Green Bay, WI

Home | Current Version | Previous Version | Text Only | Print | Product List | Glossary On
Versions: 1 2 3 4 5 6 7 8 9 10 11 12 13 14 15 16 17 18 19 20 21 22 23 24 25 26 27 28 29 30 31 32 33 34 35 36 37 38 39 40 41 42 43 44 45 46 47 48 49 50
000
ASUS43 KGRB 250059
RWRGRB

NORTH-CENTRAL AND NORTHEAST WISCONSIN REGIONAL WEATHER ROUNDUP
NATIONAL WEATHER SERVICE GREEN BAY WI
800 PM CDT FRI OCT 24 2014

WIZ005-009-010>012-018-019-250200-
NORTH CENTRAL WISCONSIN

CITY           SKY/WX    TMP DP  RH WIND       PRES   REMARKS
IRONWOOD       PTCLDY    57  52  82 SW12G20   29.75F
MANITOWISH WTR NOT AVBL
ARBOR VITAE    NOT AVBL
EAGLE RIVER    NOT AVBL
LAND O LAKES   NOT AVBL
RHINELANDER    CLOUDY    54  47  77 SW9       29.85F
PHILLIPS       NOT AVBL
ANTIGO         NOT AVBL
TOMAHAWK       NOT AVBL
MERRILL        NOT AVBL
$$

WIZ013-073-250200-
NORTHEAST WISCONSIN

CITY           SKY/WX    TMP DP  RH WIND       PRES   REMARKS
IRON MOUNTAIN  CLOUDY    52  47  83 S8        29.83F
MARINETTE      PTCLDY    50  46  87 SW5       29.87S
$$

WIZ017-030-035>037-045-250200-
CENTRAL WISCONSIN

CITY           SKY/WX    TMP DP  RH WIND       PRES   REMARKS
MEDFORD        NOT AVBL
WAUSAU         CLOUDY    56  49  77 S6        29.86F
MOSINEE        CLOUDY    54  52  94 S6        29.89S
MARSHFIELD     CLOUDY    57  53  86 SW7       29.87F
WISC RAPIDS    CLOUDY    57  51  80 S8        29.90F
STEVENS POINT  NOT AVBL
WAUPACA        NOT AVBL
SHAWANO        NOT AVBL
CLINTONVILLE   NOT AVBL
$$

WIZ038-039-048-051-250200-
FOX VALLEY

CITY           SKY/WX    TMP DP  RH WIND       PRES   REMARKS
NWS GREEN BAY  PTCLDY    51  49  92 S5        29.89F
APPLETON       CLOUDY    54  50  87 S9        29.90S
OSHKOSH        CLOUDY    55  51  86 S9        29.90F
FOND DU LAC    CLOUDY    56  49  77 S7        29.92S
$$

WIZ022-050-052-250200-
EAST CENTRAL WISCONSIN

CITY           SKY/WX    TMP DP  RH WIND       PRES   REMARKS
STURGEON BAY   CLOUDY    48  46  93 S9        29.90S VSB 1/4
MANITOWOC      NOT AVBL
SHEBOYGAN      CLOUDY    51  49  92 S6        29.92F
$$

LMZ563-521-522-541>543-250200-
LAKESHORE

STATION/POSITION TIME  TEMP    WIND        PRES    VSBY  WAVE
                       AIR SEA DIR/SP/G                  HT/PER
                 (UTC) (F)     (DEG/KT/KT) (MB)    (MI)  (FT/S)
SHEBOYGAN LKSHOR 0000   51 51  180/  9/ 10 1014.1R
KEWAUNEE LKSHORE 0000   50     180/ 13/ 15 1012.1F
TWO RIVERS CG    0000   50                 1013.1
NORTHPORT PIER   0000   50     160/  5/ 13 1012.2F
N MID LAKE BUOY  0000   49 51  200/ 16/ 19 1012.7F         3/ 4
SISTER BAY LKSHO 0000          200/ 12/ 15   N/A
STURGEON BAY CG  0000   49 50  210/  7     1014.1   3 1/2
CHAMBERS ISLAND  0000   50     170/  5/ 10 1011.9F
MENOMINEE LKSHOR 0000   51     190/  8/ 12 1012.3F
$$



USA.gov is the U.S. government's official web portal to all federal, state and local government web resources and services.